Regional Weather Roundup
Issued by NWS Upton, NY

Current Version | Previous Version | Graphics & Text | Print | Product List | Glossary Off
Versions: 1 2 3 4 5 6 7 8 9 10 11 12 13 14 15 16 17 18 19 20 21 22 23 24 25 26 27 28 29 30 31 32 33 34 35 36 37 38 39 40 41 42 43 44 45 46 47 48 49 50

000
ASUS41 KOKX 281205
RWROKX

REGIONAL WEATHER ROUNDUP
NATIONAL WEATHER SERVICE NEW YORK NY
700 AM EST SAT FEB 28 2015

NOTE: "FAIR" INDICATES FEW OR NO CLOUDS BELOW 12,000 FEET WITH NO
SIGNIFICANT WEATHER AND/OR OBSTRUCTIONS TO VISIBILITY.

NYZ071-072-176-178-NJZ106-104-281300-
NEW YORK CITY METRO AREA


CITY           SKY/WX    TMP DP  RH WIND       PRES   REMARKS
CENTRAL PARK   CLEAR     14  -4  44 VRB3      30.78R
LAGUARDIA APRT PTCLDY    15  -2  46 NW7       30.77R WCI   5
KENNEDY INTL   PTCLDY    16   2  54 N6        30.78R WCI   7
NEWARK/LIBERTY PTCLDY    13  -2  51 NW10      30.78R WCI   0
BRNX BOT. GARD   N/A    N/A N/A N/A N3        30.80R
TETERBORO      CLEAR     12  -4  48 NW5       30.78R WCI   4
$$

NYZ177-179-078>081-281300-
LONG ISLAND NEW YORK

CITY           SKY/WX    TMP DP  RH WIND       PRES   REMARKS
FARMINGDALE    CLEAR     13   1  59 NW3       30.77R
ISLIP          PTCLDY    14   3  61 N8        30.74R WCI   3
SHIRLEY        CLEAR     11   1  64 NW5       30.76R WCI   3
WESTHAMPTON    CLEAR     12   2  64 NW8       30.76R WCI   0
MONTAUK POINT    N/A     17   4  56 N9        30.73R WCI   6
$$

NYZ052-065-067-281300-
HUDSON VALLEY

CITY           SKY/WX    TMP DP  RH WIND       PRES   REMARKS
WHITE PLAINS   CLEAR      6  -3  66 W5        30.72R WCI  -3
NEWBURGH       CLEAR     -4  -9  77 CALM      30.75R
MONTGOMERY     CLEAR     -6 -13  71 CALM      30.73R
POUGHKEEPSIE   CLEAR     -5 -12  72 CALM      30.77R
ALBANY         FAIR       5  -4  66 NW6       30.76R WCI  -6
$$

NJZ001-105-106-008-010-013-015-019>022-104-281300-
NEW JERSEY

CITY           SKY/WX    TMP DP  RH WIND       PRES   REMARKS
NEWARK/LIBERTY PTCLDY    13  -2  51 NW10      30.78R WCI   0
TETERBORO      CLEAR     12  -4  48 NW5       30.78R WCI   4
CALDWELL       CLEAR      6  -6  57 CALM      30.78R
MORRISTOWN     CLEAR      9  -4  56 NW5       30.78R WCI   0
SOMERVILLE     CLEAR      4  -6  63 MISG      30.78R
SUSSEX         CLEAR     -1 -10  65 W5        30.74R WCI -11
ANDOVER          N/A     -4 -10  75 CALM      30.75R
TRENTON        CLEAR     12  -5  46 NW5       30.78R WCI   4
MILLVILLE      CLEAR    N/A N/A N/A CALM      30.79R
ATLANTIC CITY  CLEAR     13   0  56 N6        30.79R WCI   4
WRIGHTSTOWN    CLEAR     13  -3  49 NW9       30.76R WCI   0
TOMS RIVER     CLEAR     12  -2  52 NW7       30.78R WCI   2
BELMAR         CLEAR     12  -6  44 NW9       30.76R WCI   0
$$

PAZ047>061-062-071-281300-
EASTERN PENNSYLVANIA

CITY           SKY/WX    TMP DP  RH WIND       PRES   REMARKS
PHILADELPHIA   PTCLDY    17  -2  43 N10       30.81R WCI   5
ALLENTOWN      CLEAR      8  -7  50 NW5       30.79R WCI   0
SCRANTON       CLEAR      2  -6  69 S3        30.73R
$$

CTZ002-004>006-009-010-012-RIZ004-006-007-MAZ004-011-015-281300-
SOUTHERN NEW ENGLAND
 IN CT

CITY           SKY/WX    TMP DP  RH WIND       PRES   REMARKS
BRADLEY INTL   PTCLDY     4  -5  66 CALM      30.73R
HARTFORD       CLEAR     10  -1  61 N3        30.75R
DANBURY        CLEAR     -4 -11  72 W3        30.73R
WTRBRY/OXFORD  NOT AVBL
BRIDGEPORT     CLEAR      8   0  69 NW7       30.76R WCI  -3
MERIDEN        CLEAR      2  -2  83 NW3       30.75R
NEW HAVEN      CLEAR     12   0  58 NW8       30.74R WCI   0
CHESTER        FAIR      12   1  62 N13G18    30.70R WCI  -3
GROTON         CLEAR     10   0  63 N12       30.72R WCI  -5
WILLIMANTIC    CLEAR     -3  -9  75 NE3       30.73R

 IN RI

CITY           SKY/WX    TMP DP  RH WIND       PRES   REMARKS
PROVIDENCE     PTCLDY    11  -3  53 NW8       30.71R WCI  -1
BLOCK ISLAND   FAIR      16   1  53 N9        30.69R WCI   4
WESTERLY       CLEAR     11  -1  58 N8        30.72R WCI  -1

 IN MA

CITY           SKY/WX    TMP DP  RH WIND       PRES   REMARKS
BOSTON         CLEAR     12  -1  56 W10       30.71R WCI  -1
WORCESTER      CLEAR      6  -5  60 NW13      30.61R WCI -10
WESTFIELD      CLEAR     -4  -9  79 CALM      30.72R
PROVINCETOWN   CLEAR     21   5  49 NW14      30.68R WCI   8
NANTUCKET      CLEAR     18  10  71 NW10      30.66R WCI   6
$$

ANZ330-335-338-340-345-350-353-355-281300-
COASTAL MARINE OBSERVATIONS


STATION/POSITION TIME  SKY/WX   TEMP    WIND        PRES    VSBY  WAVE
                                AIR SEA DIR/SP/G                  HT/PER
                 (UTC)          (F)     (DEG/KT/KT) (MB)    (MI)  (FT/S)
NY HARB ENTRANCE 1200            19 38   10/ 10/ 16 1041.5          2/ 9
4S FIRE IS       NOT AVBL
20S FIRE ISLAND  1100               36              1041.2          4/ 9
23SW MTP         1200                                 N/A           4/10
HUDSON CANYON    NOT AVBL
EXECUTION ROCKS  NOT AVBL
WESTERN LI SOUND NOT AVBL
CENTRAL LI SOUND NOT AVBL
EASTERN LI SOUND NOT AVBL
ROBBINS REEF     1100            14     330/  9/ 11 1041.0
$$


>>>>>>>>>>>>>>>>>>>>>>>>>>>> KEY <<<<<<<<<<<<<<<<<<<<<<<<<<<
>                                                          <
>     SKY/WX - SKY CONDITION/PRESENT WEATHER               <
>     TMP    - TEMPERATURE IN FAHRENHEIT                   <
>     DP     - DEWPOINT IN FAHRENHEIT                      <
>     RH     - RELATIVE HUMIDITY IN PERCENT                <
>     WIND   - DIRECTION AND SPEED IN MPH                  <
>     PRES   - MEAN SEA LEVEL PRESSURE IN INCHES OF HG     <
>     WCI    - WIND CHILL INDEX                            <
>     VSB    - VISIBILITY IN MILES                         <
>     HX     - HEAT INDEX                                  <
>     TC     - TEMPERATURE IN CELSIUS                      <
>     VRB    - VARIABLE WIND DIRECTION                     <
>                                                          <
>>>>>>>>>>>>>>>>>>>>>>>>>>>> KEY <<<<<<<<<<<<<<<<<<<<<<<<<<<




USA.gov is the U.S. government's official web portal to all federal, state and local government web resources and services.